Zurück zum Katalog

COSMOS 1823 DEB

AktivLEO
NORAD 18803·DEBRIS·🇷🇺 Russia

Gestartet Feb 20, 1987 von Plesetsk Cosmodrome

Loading…

Nächste Überflüge (nächste 24 Stunden)

TLE

AktuellSource: Space-Track

Epoche: Sep 14, 2026, 19:44 UTC

1 18803U 87020AP  26257.82238775 -.00000003  00000-0  12124-3 0  9998
2 18803  73.4465  95.7359 0085019 357.6296  16.3713 12.32030955741373

Verfolge COSMOS 1823 DEB in Echtzeit mit AllMySat

Download on the App Store